Location: Carrizalito
(10.3833°N, 67.0217°W)
Time: 13:37:39
(UTC+00:00)

Meteor 1-11 Rocket - Pass Details

Date: 12 July 2022
Orbit: 830 x 916 km, 81.2° (Epoch: 18 August)

Event Time Altitude Azimuth Distance (km) Brightness Sun altitude
Exits shadow 06:48:04 19° 55° (NE) 2,011 6.1 -43.8°
Drops below altitude 10° 06:50:11 10° 38° (NE) 2,580 6.8 -43.5°
Sets 06:53:00 0° 26° (NNE) 3,510 7.6 -43.0°
